• In Österreich
  • Länderverzeichnis
  • Für 7 Tage
  • Wassertemperatur
  • Satellitenkarten
  • Wetterkarte
  • News
  • Widgets
  • user-avatar
    Anmelden

    Stündliche Wetter Kinshasa

    Heute, 22 September, Samstag

    Zeit Temperatur Niederschläge Wind Luftdruck Luftfeuchtigkeit
    00:00 +22°C° 0.7 mm 1 m/S 706 mmHg 96%
    01:00 +22°C° 0.7 mm 1 m/S 706 mmHg 97%
    02:00 +22°C° 0.4 mm 1 m/S 706 mmHg 97%
    03:00 +22°C° 0.4 mm 1 m/S 706 mmHg 97%
    04:00 +22°C° 0.4 mm 1 m/S 706 mmHg 97%
    05:00 +22°C° 0.4 mm 1 m/S 706 mmHg 97%
    06:00 +22°C° 0.4 mm 1 m/S 707 mmHg 96%
    07:00 +23°C° 0.4 mm 1 m/S 707 mmHg 96%
    08:00 +25°C° 0 mm 1 m/S 707 mmHg 86%
    09:00 +27°C° 0 mm 1 m/S 708 mmHg 77%
    10:00 +29°C° 0 mm 1 m/S 708 mmHg 67%
    11:00 +30°C° 0.9 mm 1 m/S 707 mmHg 70%
    12:00 +30°C° 0.9 mm 1 m/S 707 mmHg 72%
    13:00 +30°C° 0.9 mm 1 m/S 706 mmHg 75%
    14:00 +30°C° 0.6 mm 1 m/S 706 mmHg 74%
    15:00 +30°C° 0.6 mm 1 m/S 705 mmHg 73%
    16:00 +30°C° 0.6 mm 1 m/S 705 mmHg 73%
    17:00 +28°C° 0.1 mm 1 m/S 705 mmHg 77%
    18:00 +26°C° 0.1 mm 1 m/S 705 mmHg 82%
    19:00 +23°C° 0.1 mm 0 m/S 705 mmHg 86%
    20:00 +24°C° 0 mm 1 m/S 706 mmHg 87%
    21:00 +24°C° 0 mm 1 m/S 706 mmHg 89%
    22:00 +23°C° 0 mm 1 m/S 706 mmHg 90%
    23:00 +23°C° 0.7 mm 1 m/S 706 mmHg 92%

    Morgen, 23 September, Sonntag

    Zeit Temperatur Niederschläge Wind Luftdruck Luftfeuchtigkeit
    00:00 +23°C° 0.7 mm 1 m/S 706 mmHg 95%
    01:00 +22°C° 0.7 mm 1 m/S 706 mmHg 97%
    02:00 +22°C° 0.5 mm 1 m/S 706 mmHg 97%
    03:00 +22°C° 0.5 mm 1 m/S 706 mmHg 98%
    04:00 +22°C° 0.5 mm 1 m/S 706 mmHg 98%
    05:00 +22°C° 0 mm 1 m/S 706 mmHg 98%
    06:00 +22°C° 0 mm 1 m/S 707 mmHg 97%
    07:00 +23°C° 0 mm 1 m/S 707 mmHg 97%
    08:00 +24°C° 0.4 mm 1 m/S 708 mmHg 93%
    09:00 +26°C° 0.4 mm 1 m/S 708 mmHg 90%
    10:00 +27°C° 0.4 mm 1 m/S 709 mmHg 87%
    11:00 +29°C° 0.6 mm 1 m/S 708 mmHg 78%
    12:00 +30°C° 0.6 mm 1 m/S 708 mmHg 70%
    13:00 +31°C° 0.6 mm 1 m/S 708 mmHg 62%
    14:00 +31°C° 0 mm 1 m/S 707 mmHg 64%
    15:00 +30°C° 0 mm 1 m/S 706 mmHg 66%
    16:00 +30°C° 0 mm 1 m/S 706 mmHg 69%
    17:00 +28°C° 0 mm 1 m/S 706 mmHg 74%
    18:00 +24°C° 0 mm 0 m/S 706 mmHg 80%
    19:00 +23°C° 0 mm 0 m/S 707 mmHg 86%
    20:00 +22°C° 0 mm 0 m/S 707 mmHg 88%
    21:00 +22°C° 0 mm 0 m/S 707 mmHg 90%
    22:00 +21°C° 0 mm 0 m/S 707 mmHg 93%
    23:00 +23°C° 0 mm 1 m/S 707 mmHg 93%

    übermorgen, 24 September, Montag

    Zeit Temperatur Niederschläge Wind Luftdruck Luftfeuchtigkeit
    00:00 +23°C° 0 mm 1 m/S 706 mmHg 94%
    01:00 +22°C° 0 mm 1 m/S 706 mmHg 95%
    02:00 +22°C° 0.1 mm 1 m/S 706 mmHg 96%
    03:00 +22°C° 0.1 mm 1 m/S 706 mmHg 97%
    04:00 +22°C° 0.1 mm 1 m/S 706 mmHg 97%
    05:00 +22°C° 1 mm 1 m/S 707 mmHg 97%
    06:00 +22°C° 1 mm 1 m/S 707 mmHg 98%
    07:00 +23°C° 1 mm 1 m/S 708 mmHg 98%
    08:00 +24°C° 0 mm 1 m/S 708 mmHg 92%
    09:00 +26°C° 0 mm 1 m/S 709 mmHg 86%
    10:00 +27°C° 0 mm 1 m/S 709 mmHg 81%
    11:00 +29°C° 0 mm 1 m/S 708 mmHg 73%
    12:00 +30°C° 0 mm 1 m/S 708 mmHg 65%
    13:00 +32°C° 0 mm 1 m/S 707 mmHg 57%
    14:00 +32°C° 0 mm 1 m/S 706 mmHg 58%
    15:00 +32°C° 0 mm 1 m/S 706 mmHg 60%
    16:00 +32°C° 0 mm 1 m/S 705 mmHg 61%
    17:00 +29°C° 0.3 mm 1 m/S 705 mmHg 69%
    18:00 +27°C° 0.3 mm 1 m/S 706 mmHg 77%
    19:00 +25°C° 0.3 mm 1 m/S 706 mmHg 85%
    20:00 +25°C° 0.2 mm 1 m/S 706 mmHg 86%
    21:00 +24°C° 0.2 mm 1 m/S 707 mmHg 87%
    22:00 +24°C° 0.2 mm 1 m/S 707 mmHg 89%
    23:00 +23°C° 0.9 mm 1 m/S 707 mmHg 91%

    25 September, Dienstag

    Zeit Temperatur Niederschläge Wind Luftdruck Luftfeuchtigkeit
    00:00 +21°C° 0.9 mm 0 m/S 706 mmHg 94%
    01:00 +21°C° 0.9 mm 0 m/S 706 mmHg 96%
    02:00 +21°C° 0.6 mm 0 m/S 706 mmHg 97%
    03:00 +21°C° 0.6 mm 0 m/S 706 mmHg 97%
    04:00 +20°C° 0.6 mm 0 m/S 706 mmHg 98%
    05:00 +21°C° 0.2 mm 0 m/S 707 mmHg 98%
    06:00 +23°C° 0.2 mm 1 m/S 708 mmHg 98%
    07:00 +23°C° 0.2 mm 1 m/S 708 mmHg 98%
    08:00 +23°C° 0.2 mm 1 m/S 708 mmHg 97%
    09:00 +24°C° 0.2 mm 1 m/S 709 mmHg 95%
    10:00 +25°C° 0.2 mm 2 m/S 709 mmHg 94%
    11:00 +26°C° 0.7 mm 2 m/S 708 mmHg 92%
    12:00 +26°C° 0.7 mm 2 m/S 707 mmHg 90%
    13:00 +27°C° 0.7 mm 2 m/S 706 mmHg 88%
    14:00 +27°C° 0.2 mm 1 m/S 706 mmHg 85%
    15:00 +27°C° 0.2 mm 1 m/S 706 mmHg 83%
    16:00 +27°C° 0.2 mm 1 m/S 706 mmHg 81%
    17:00 +26°C° 0 mm 1 m/S 706 mmHg 84%
    18:00 +25°C° 0 mm 1 m/S 706 mmHg 88%
    19:00 +24°C° 0 mm 1 m/S 707 mmHg 92%
    20:00 +23°C° 0 mm 1 m/S 707 mmHg 92%
    21:00 +23°C° 0 mm 1 m/S 707 mmHg 93%
    22:00 +23°C° 0 mm 1 m/S 708 mmHg 94%
    23:00 +23°C° 0 mm 1 m/S 707 mmHg 94%

    26 September, Mittwoch

    Zeit Temperatur Niederschläge Wind Luftdruck Luftfeuchtigkeit
    00:00 +22°C° 0 mm 1 m/S 707 mmHg 95%
    01:00 +22°C° 0 mm 1 m/S 706 mmHg 96%
    02:00 +22°C° 0 mm 1 m/S 706 mmHg 96%
    03:00 +21°C° 0 mm 1 m/S 706 mmHg 97%
    04:00 +21°C° 0 mm 1 m/S 706 mmHg 97%
    05:00 +22°C° 0 mm 1 m/S 706 mmHg 95%
    06:00 +22°C° 0 mm 1 m/S 707 mmHg 92%
    07:00 +23°C° 0 mm 1 m/S 708 mmHg 90%
    08:00 +25°C° 0 mm 1 m/S 708 mmHg 80%
    09:00 +27°C° 0 mm 1 m/S 708 mmHg 70%
    10:00 +30°C° 0 mm 1 m/S 709 mmHg 60%
    11:00 +31°C° 0 mm 1 m/S 708 mmHg 57%
    12:00 +32°C° 0 mm 1 m/S 707 mmHg 53%
    13:00 +33°C° 0 mm 1 m/S 706 mmHg 50%
    14:00 +33°C° 0.1 mm 1 m/S 706 mmHg 53%
    15:00 +32°C° 0.1 mm 1 m/S 706 mmHg 56%
    16:00 +32°C° 0.1 mm 1 m/S 705 mmHg 59%
    17:00 +29°C° 0.1 mm 1 m/S 706 mmHg 66%
    18:00 +25°C° 0.1 mm 0 m/S 706 mmHg 73%
    19:00 +23°C° 0.1 mm 0 m/S 706 mmHg 80%
    20:00 +23°C° 0.4 mm 0 m/S 706 mmHg 84%
    21:00 +24°C° 0.4 mm 1 m/S 707 mmHg 87%
    22:00 +23°C° 0.4 mm 1 m/S 707 mmHg 90%
    23:00 +23°C° 0 mm 1 m/S 706 mmHg 92%

    27 September, Donnerstag

    Zeit Temperatur Niederschläge Wind Luftdruck Luftfeuchtigkeit
    00:00 +23°C° 0 mm 1 m/S 706 mmHg 94%
    01:00 +22°C° 0 mm 1 m/S 705 mmHg 96%
    02:00 +22°C° 0 mm 1 m/S 706 mmHg 97%
    03:00 +22°C° 0 mm 1 m/S 706 mmHg 97%
    04:00 +21°C° 0 mm 1 m/S 706 mmHg 98%
    05:00 +22°C° 0 mm 1 m/S 706 mmHg 96%
    06:00 +22°C° 0 mm 1 m/S 707 mmHg 95%
    07:00 +23°C° 0 mm 1 m/S 708 mmHg 94%
    08:00 +25°C° 0 mm 1 m/S 708 mmHg 84%
    09:00 +27°C° 0 mm 1 m/S 708 mmHg 75%
    10:00 +30°C° 0 mm 2 m/S 708 mmHg 65%
    11:00 +31°C° 0.1 mm 1 m/S 708 mmHg 62%
    12:00 +32°C° 0.1 mm 1 m/S 707 mmHg 59%
    13:00 +33°C° 0.1 mm 1 m/S 706 mmHg 56%
    14:00 +32°C° 1.2 mm 1 m/S 706 mmHg 66%
    15:00 +30°C° 1.2 mm 1 m/S 706 mmHg 76%
    16:00 +29°C° 1.2 mm 1 m/S 705 mmHg 86%
    17:00 +27°C° 0.5 mm 1 m/S 706 mmHg 89%
    18:00 +26°C° 0.5 mm 1 m/S 706 mmHg 92%
    19:00 +24°C° 0.5 mm 1 m/S 707 mmHg 95%
    20:00 +24°C° 0.1 mm 1 m/S 707 mmHg 95%
    21:00 +24°C° 0.1 mm 1 m/S 707 mmHg 95%
    22:00 +23°C° 0.1 mm 1 m/S 707 mmHg 95%
    23:00 +23°C° 0 mm 1 m/S 707 mmHg 95%
    Mehr zeigen